Content
SEND FEEDBACK

Daily
Averages
Monthly
Summary
United States of America

RIMROCK, ARIZONA


Home > North America > United States > Arizona
Elevation: 3830 feet     Latitude: 34 40N     Longitude: 111 43W

WEATHER
 
SELECT A DAY
Number of Records: 130,443;   Date Range: 1/4/95 - 8/12/14
 
SHARE

PRINT THIS DATA

[ ← Previous Day ]
WEATHER ALMANAC - JANUARY 29, 2014
[ Next Day → ]
[ °C ]   °F
Weather ElementAverageHighLow
Barometer30.10 in30.18 in (12:35 am)30.02 in (5:15 pm)
Wind Speed5.9 mph13.8 mph (12:35 am)
Wind Gust17.3 mph (12:35 am)
Weather ElementAverage
Visibility10 mi
Wind DirectionESE (97 °)

Weather ElementTotal
Precipitation---
Heating Degree Days65 (Base 65)
Averaged from 71 records on January 29, 2014
WEATHER CONDITIONS BREAKOUT
WIND DIRECTION BREAKOUT
WEATHER BY HOUR - JANUARY 29, 2014
[ °C ]   °F
Local TimeTemperatureDewpointHumidityBarometerVisibilityWind DirectionWind SpeedGust SpeedPrecipitationEventsConditions
12:35 AM0.0 °F0.0 °F30.18 in10.0 miNE (40°)13.8 mph17.3 mphClear
12:55 AM0.0 °F0.0 °F30.18 in10.0 miNE (40°)11.5 mphClear
1:15 AM0.0 °F0.0 °F30.18 in10.0 miNE (50°)12.7 mphClear
1:35 AM0.0 °F0.0 °F30.18 in10.0 miNE (40°)11.5 mphClear
1:55 AM0.0 °F0.0 °F30.18 in10.0 miNE (50°)9.2 mphClear
2:15 AM0.0 °F0.0 °F30.18 in10.0 miNE (50°)11.5 mphClear
2:35 AM0.0 °F0.0 °F30.16 in10.0 miNE (40°)11.5 mphClear
2:55 AM0.0 °F0.0 °F30.15 in10.0 miNNE (30°)11.5 mphClear
3:15 AM0.0 °F0.0 °F30.15 in10.0 miENE (60°)13.8 mphClear
3:35 AM0.0 °F0.0 °F30.15 in10.0 miENE (60°)10.4 mphClear
3:55 AM0.0 °F0.0 °F30.15 in10.0 miENE (60°)6.9 mphClear
4:15 AM0.0 °F0.0 °F30.15 in10.0 miNE (40°)11.5 mphClear
4:35 AM0.0 °F0.0 °F30.15 in10.0 miNE (40°)11.5 mphClear
4:55 AM0.0 °F0.0 °F30.14 in10.0 miNE (40°)10.4 mphClear
5:15 AM0.0 °F0.0 °F30.14 in10.0 miNE (40°)11.5 mphClear
5:35 AM0.0 °F0.0 °F30.14 in10.0 miENE (60°)11.5 mphClear
5:55 AM0.0 °F0.0 °F30.13 in10.0 miNE (40°)5.8 mphClear
6:15 AM0.0 °F0.0 °F30.15 in10.0 miNE (50°)9.2 mphClear
6:35 AM0.0 °F0.0 °F30.15 in10.0 miNE (50°)11.5 mphClear
6:55 AM0.0 °F0.0 °F30.15 in10.0 miENE (60°)8.1 mphClear
7:15 AM0.0 °F0.0 °F30.16 in10.0 miNE (50°)10.4 mphClear
7:35 AM0.0 °F0.0 °F30.16 in10.0 miNE (50°)9.2 mphClear
7:55 AM0.0 °F0.0 °F30.15 in10.0 miNE (40°)11.5 mphClear
8:15 AM0.0 °F0.0 °F30.16 in10.0 miNE (40°)9.2 mphClear
8:35 AM0.0 °F0.0 °F30.15 in10.0 miNE (50°)5.8 mphClear
8:55 AM0.0 °F0.0 °F30.16 in10.0 miEast (90°)8.1 mphClear
9:15 AM0.0 °F0.0 °F30.16 in10.0 miSE (140°)3.5 mphClear
9:35 AM0.0 °F0.0 °F30.18 in10.0 miSSE (160°)3.5 mphClear
9:55 AM0.0 °F0.0 °F30.16 in10.0 miSouth (180°)3.5 mphClear
10:15 AM0.0 °F0.0 °F30.16 in10.0 miSSE (150°)5.8 mphClear
10:35 AM0.0 °F0.0 °F30.18 in10.0 miCalmClear
10:55 AM0.0 °F0.0 °F30.17 in10.0 miSSE (150°)4.6 mphClear
11:15 AM0.0 °F0.0 °F30.15 in10.0 miSE (140°)5.8 mphClear
11:35 AM0.0 °F0.0 °F30.15 in10.0 miSouth (190°)6.9 mphClear
11:55 AM0.0 °F0.0 °F30.15 in10.0 miCalmClear
12:15 PM0.0 °F0.0 °F30.14 in10.0 miWest (270°)3.5 mphClear
12:35 PM0.0 °F0.0 °F30.12 in10.0 miSouth (170°)4.6 mphClear
12:55 PM0.0 °F0.0 °F30.11 in10.0 miSouth (190°)4.6 mphClear
1:15 PM0.0 °F0.0 °F30.09 in10.0 miSSW (200°)4.6 mphClear
1:35 PM0.0 °F0.0 °F30.08 in10.0 miSouth (170°)5.8 mphClear
1:55 PM0.0 °F0.0 °F30.07 in10.0 miSSE (150°)4.6 mphClear
2:15 PM0.0 °F0.0 °F30.06 in10.0 miSSW (200°)6.9 mphClear
2:35 PM0.0 °F0.0 °F30.05 in10.0 miSSE (160°)4.6 mphClear
2:55 PM0.0 °F0.0 °F30.04 in10.0 miSSW (200°)4.6 mphClear
3:15 PM0.0 °F0.0 °F30.04 in10.0 miSSW (200°)4.6 mphClear
3:35 PM0.0 °F0.0 °F30.04 in10.0 miWNW (300°)3.5 mphClear
3:55 PM0.0 °F0.0 °F30.04 in10.0 miWest (270°)3.5 mphClear
4:15 PM0.0 °F0.0 °F30.04 in10.0 miESE (110°)3.5 mphClear
4:35 PM0.0 °F0.0 °F30.03 in10.0 miSE (140°)3.5 mphClear
4:55 PM0.0 °F0.0 °F30.03 in10.0 miCalmClear
5:15 PM0.0 °F0.0 °F30.02 in10.0 miCalmClear
5:35 PM0.0 °F0.0 °F30.03 in10.0 miCalmClear
5:55 PM0.0 °F0.0 °F30.02 in10.0 miSouth (190°)3.5 mphClear
6:15 PM0.0 °F0.0 °F30.02 in10.0 miSSW (200°)5.8 mphClear
6:35 PM0.0 °F0.0 °F30.03 in10.0 miCalmClear
6:55 PM0.0 °F0.0 °F30.03 in10.0 miSSW (200°)4.6 mphClear
7:15 PM0.0 °F0.0 °F30.02 in10.0 miSSW (200°)3.5 mphClear
7:35 PM0.0 °F0.0 °F30.03 in10.0 miSSE (160°)4.6 mphClear
7:55 PM0.0 °F0.0 °F30.04 in10.0 miCalmClear
8:15 PM0.0 °F0.0 °F30.04 in10.0 miCalmClear
8:35 PM0.0 °F0.0 °F30.04 in10.0 miSouth (190°)5.8 mphClear
8:55 PM0.0 °F0.0 °F30.04 in10.0 miSE (130°)4.6 mphClear
9:15 PM0.0 °F0.0 °F30.04 in10.0 miSE (130°)3.5 mphClear
9:35 PM0.0 °F0.0 °F30.05 in10.0 miCalmClear
9:55 PM0.0 °F0.0 °F30.04 in10.0 miSouth (170°)3.5 mphClear
10:15 PM0.0 °F0.0 °F30.04 in10.0 miSSE (150°)3.5 mphClear
10:35 PM0.0 °F0.0 °F30.04 in10.0 miCalmClear
10:55 PM0.0 °F0.0 °F30.04 in10.0 miCalmClear
11:15 PM0.0 °F0.0 °F30.03 in10.0 miCalmClear
11:35 PM0.0 °F0.0 °F30.03 in10.0 miNNE (30°)3.5 mphClear
11:55 PM0.0 °F0.0 °F30.03 in10.0 miNE (40°)3.5 mphClear
Hourly data recorded from KSEZ, located miles away from Rimrock, Arizona







STORIES FROM OUR PARTNERS